Tracking 19145 objects as of 26-Apr-2018
HD Live streaming from Space Station
objects crossing your sky now

FENGYUN 1C DEB

Track FENGYUN 1C DEB now!
10-day predictions


NORAD ID: 30725
Int'l Code: 1999-025ASK
Perigee: 812.0 km
Apogee: 957.5 km
Inclination: 99.2 °
Period: 102.5 minutes
Semi major axis: 7255 km
RCS: 0.03 m2 (small)
Launch date: May 10, 1999
Source: People's Republic of China (PRC)
Launch site: Taiyaun Space Center, China (TSC)

Note: This is SATELLITE DEBRIS
aabbcc
Your satellite tracking list
Your tracking list is empty




NASA's NSSDC Master Catalog

Two Line Element Set (TLE):
1 30725U 99025ASK 18115.68593785  .00000683  00000-0  43604-3 0  9996
2 30725  99.1925 122.6107 0100256 250.4497 173.5750 14.04675910571152
Source of the keplerian elements: AFSPC